Back to catalog

STARLINK-32416

AliveCommunicationsVLEO
NORAD 61589·PAYLOAD·🇺🇸 United States

Launched Oct 18, 2024 from Cape Canaveral Space Force Station

Loading…

Next Passes (next 24 hours)

TLE

FreshSource: CelesTrak SupGP

Epoch: Sep 14, 2026, 21:32 UTC

1 61589C 24187R   26257.89770833  .00049526  00000+0  14633-2 0  2579
2 61589  53.1577 247.5623 0001402  94.9330 291.7314 15.34364132    13

Track STARLINK-32416 in real time with AllMySat

Download on the App Store